Location: Newark
(43.6583°N, 1.6617°E)
Time: 22:18:10
(UTC+00:00)

Tiros 1 - Pass Details

Date: 03 September 2019
Orbit: 630 x 664 km, 48.4° (Epoch: 22 September)

Event Time Altitude Azimuth Distance (km) Brightness Sun altitude
Rises 18:40:44 0° 218° (SW) 2,919 10.9 -3.4°
Reaches altitude 10° 18:43:10 10° 210° (SSW) 2,009 9.9 -3.9°
Maximum altitude 18:47:26 38° 143° (SE) 969 7.7 -4.6°
Drops below altitude 10° 18:51:42 10° 76° (ENE) 2,009 9.2 -5.3°
Enters shadow 18:53:56 - 69° (ENE) 2,841 10.0 -5.7°
Sets 18:54:09 0° 68° (ENE) 2,919 - -5.8°
